TimeCDT,TemperatureF,Dew PointF,Humidity,Sea Level PressureIn,VisibilityMPH,Wind Direction,Wind SpeedMPH,Gust SpeedMPH,PrecipitationIn,Events,Conditions,WindDirDegrees,DateUTC
12:51 AM,61.0,50.0,67,30.04,10.0,South,4.6,-,N/A,,Clear,190,2011-11-01 05:51:00
1:51 AM,61.0,50.0,67,30.03,10.0,South,8.1,-,N/A,,Clear,180,2011-11-01 06:51:00
2:51 AM,61.0,50.0,67,30.02,10.0,South,11.5,-,N/A,,Clear,170,2011-11-01 07:51:00
3:51 AM,61.0,48.9,64,29.99,10.0,South,17.3,24.2,N/A,,Clear,180,2011-11-01 08:51:00
4:51 AM,60.1,48.0,64,30.00,10.0,South,19.6,26.5,N/A,,Clear,180,2011-11-01 09:51:00
5:51 AM,59.0,48.2,67,30.05,10.0,South,10.4,19.6,N/A,,Clear,190,2011-11-01 10:51:00
6:51 AM,59.0,50.0,72,30.01,10.0,South,15.0,21.9,N/A,,Clear,190,2011-11-01 11:51:00
7:51 AM,59.0,51.1,75,30.03,10.0,SSW,13.8,20.7,N/A,,Clear,200,2011-11-01 12:51:00
8:51 AM,60.1,52.0,75,30.04,10.0,SSW,10.4,17.3,N/A,,Clear,200,2011-11-01 13:51:00
9:51 AM,64.0,53.1,67,30.05,10.0,SSW,18.4,29.9,N/A,,Clear,200,2011-11-01 14:51:00
10:51 AM,68.0,53.1,59,30.03,10.0,South,18.4,31.1,N/A,,Clear,190,2011-11-01 15:51:00
11:51 AM,73.0,54.0,51,30.01,10.0,South,16.1,24.2,N/A,,Clear,180,2011-11-01 16:51:00
12:51 PM,75.9,52.0,43,29.99,10.0,South,19.6,28.8,N/A,,Clear,190,2011-11-01 17:51:00
1:51 PM,78.8,51.8,39,30.00,10.0,South,17.3,28.8,N/A,,Clear,190,2011-11-01 18:51:00
2:51 PM,81.0,50.0,34,29.91,10.0,South,17.3,23.0,N/A,,Clear,170,2011-11-01 19:51:00
3:51 PM,82.0,48.9,31,29.89,10.0,South,16.1,24.2,N/A,,Clear,180,2011-11-01 20:51:00
4:51 PM,82.0,46.0,28,29.88,10.0,SSW,19.6,26.5,N/A,,Clear,200,2011-11-01 21:51:00
5:51 PM,80.1,46.9,31,29.88,10.0,South,17.3,21.9,N/A,,Clear,190,2011-11-01 22:51:00
6:51 PM,77.0,46.9,34,29.88,10.0,South,9.2,-,N/A,,Clear,170,2011-11-01 23:51:00
7:51 PM,73.9,48.0,40,29.90,10.0,South,8.1,-,N/A,,Clear,170,2011-11-02 00:51:00
8:51 PM,72.0,48.9,44,29.92,10.0,SSE,11.5,-,N/A,,Clear,160,2011-11-02 01:51:00
9:51 PM,71.1,50.0,47,29.91,10.0,South,15.0,25.3,N/A,,Clear,170,2011-11-02 02:51:00
10:51 PM,69.8,50.0,49,29.96,10.0,South,11.5,18.4,N/A,,Clear,180,2011-11-02 03:51:00
11:51 PM,66.9,50.0,54,29.89,10.0,South,11.5,18.4,N/A,,Clear,180,2011-11-02 04:51:00